Погода в Витязевке

Украина / Кировоградская область     48°00′39″N   31°52′49″E
темп.,
°C
ветер,
м/с
пор.,
м/с
влажн.,
%
обл.,
%
осадки,
мм/ч
давл.,
гПа
погр.,
м
22 апреля, чт
чт2200:00+8юз33748 0.0 101825
03:00+7юз33805 0.0 101837
06:00+6юз338346 0.0 101935
09:00+12ююз466762 0.0 1020412
12:00+15ююз565263 0.0 10201329
15:00+16ю6643100 0.0 10192129
18:00+14ююз4758100 0.0 1019452
21:00+10ю511765 0.0 1019238
23 апреля, пт
пт2300:00+8ю4118636 0.0 1019239
03:00+8ю51285100 0.0 1018325
06:00+7ю51388100 0.1 1017311
09:00+11ююз71077100 0.6 1017552
12:00+14юз71168100 0.5 10161765
15:00+14зсз5569100 1.7 10161289
18:00+7ссз6984100 0.4 1018593
21:00+5с249098 1.3 1019122
24 апреля, сб
сб2400:00+4з35943 0.0 1020108
03:00+3з410905 0.0 1019213
06:00+2зсз49880 0.0 1020170
09:00+8зсз57582 0.0 1020764
12:00+10з81050100 0.2 10201930
15:00+9сз10115699 0.6 10201744
18:00+9сз610395 0.1 10212285
21:00+4ссз35621 0.1 102384
25 апреля, вс
вс2500:00+3зсз22640 0.0 102320
03:00+3з33665 0.0 102325
06:00+2юз22705 0.0 102324
09:00+8юз46526 0.0 1022541
12:00+12юз465067 0.0 10211756
15:00+12зюз575497 0.3 10191523
18:00+12юз5757100 0.1 10181432
21:00+7с559499 4.9 1019297
26 апреля, пн
пн2600:00+7св1291100 0.5 1019184
03:00+5ссз3688100 4.3 1019582
06:00+4ссз118792 0.6 101919
09:00+7сз345897 0.6 1020672
12:00+10сз44375 0.0 10191752
15:00+12з4636100 0.0 10182338
18:00+11з453966 0.0 10172084
21:00+8з225385 0.0 101811